EW2058 Weather Reports


Display with metric or nautical units.
time (UTC)temp
F
wind
direction
speed
MPH
gust
MPH
rain 1hr
in
rain 24hr
in
rain mn
in
humidity
%
barometer
mb
20220529104803 45 266 9.0 15.0 0.02 0.61 0.03 79 1006.9
20220529104304 45 271 12.0 15.0 0.02 0.61 0.03 78 1006.6
20220529103803 45 267 9.0 16.0 0.02 0.60 0.03 80 1006.6
20220529103303 45 265 11.0 16.0 0.02 0.60 0.03 80 1006.7
20220529102304 45 245 12.0 17.0 0.01 0.60 0.02 82 1006.6
20220529101804 45 245 11.0 14.0 0.01 0.60 0.02 83 1006.6
20220529101304 45 252 9.0 13.0 0.01 0.59 0.02 84 1006.6
20220529100803 45 241 6.0 10.0 0.01 0.59 0.02 85 1006.6
20220529100304 45 237 7.0 10.0 0.00 0.59 0.01 86 1006.6
20220529095803 45 244 7.0 13.0 0.00 0.58 0.01 86 1006.6
20220529094804 45 204 7.0 10.0 0.00 0.58 0.01 86 1006.3
20220529094304 45 227 6.0 14.0 0.00 0.58 0.01 85 1006.3
20220529093804 45 233 7.0 10.0 0.00 0.58 0.01 84 1006.3
20220529093303 45 237 10.0 13.0 0.00 0.58 0.01 83 1006.3
20220529092804 45 247 9.0 15.0 0.00 0.58 0.01 82 1006.3
20220529092304 45 249 9.0 16.0 0.00 0.58 0.01 83 1006.5
20220529091803 45 241 15.0 20.0 0.00 0.58 0.01 81 1006.6
20220529091304 45 243 12.0 16.0 0.00 0.58 0.01 83 1006.6
20220529090803 45 251 9.0 15.0 0.01 0.58 0.01 83 1006.6
20220529090304 46 258 13.0 20.0 0.01 0.58 0.01 81 1006.6
20220529085803 46 258 17.0 20.0 0.01 0.58 0.01 80 1006.6
20220529085303 46 250 11.0 16.0 0.01 0.58 0.01 83 1006.6
20220529084804 46 227 9.0 13.0 0.01 0.58 0.01 85 1006.6
20220529084303 46 238 9.0 15.0 0.01 0.58 0.01 85 1006.6
20220529083804 46 242 10.0 13.0 0.01 0.58 0.01 84 1006.6
20220529083303 46 231 10.0 13.0 0.01 0.58 0.01 84 1006.6
20220529082804 46 234 9.0 14.0 0.01 0.58 0.01 84 1006.6
20220529082304 46 246 12.0 15.0 0.00 0.58 0.01 82 1006.6
20220529081804 46 241 10.0 13.0 0.00 0.58 0.00 83 1006.6
20220529081304 46 241 7.0 12.0 0.00 0.58 0.00 84 1006.6
20220529080804 46 234 7.0 9.0 0.00 0.58 0.00 83 1006.6
20220529080304 46 238 7.0 10.0 0.00 0.58 0.00 83 1006.6
20220529075804 46 220 9.0 12.0 0.00 0.58 0.00 82 1006.6
20220529075303 46 238 9.0 14.0 0.00 0.58 0.00 81 1006.6
20220529074804 46 240 11.0 14.0 0.00 0.58 0.00 80 1006.9
20220529074303 46 231 8.0 13.0 0.00 0.58 0.00 81 1006.9
20220529073804 46 245 10.0 14.0 0.00 0.58 0.00 79 1007.0
20220529073304 46 243 10.0 15.0 0.00 0.58 0.00 79 1007.0
20220529072804 46 248 13.0 16.0 0.00 0.58 0.00 79 1007.0
20220529072304 46 246 9.0 12.0 0.00 0.58 0.00 81 1007.0
20220529071804 46 250 9.0 10.0 0.00 0.58 0.00 80 1007.0
20220529071304 46 251 5.0 8.0 0.00 0.58 0.00 82 1007.0
20220529070804 46 243 5.0 7.0 0.00 0.58 0.00 81 1007.0
20220529070303 46 243 7.0 10.0 0.00 0.58 0.00 81 1007.0
20220529065804 46 242 9.0 10.0 0.00 0.58 0.00 82 1007.0
20220529065303 46 229 6.0 9.0 0.01 0.58 0.00 82 1007.0
20220529064803 46 211 3.0 7.0 0.01 0.58 0.00 83 1007.0
20220529064304 46 195 6.0 9.0 0.02 0.58 0.00 82 1007.0
20220529063804 46 224 5.0 8.0 0.02 0.58 0.00 83 1007.1
20220529063304 46 233 5.0 6.0 0.02 0.58 0.00 85 1007.3
20220529062804 46 207 4.0 6.0 0.02 0.58 0.00 84 1007.3
20220529062304 46 184 5.0 6.0 0.02 0.58 0.00 85 1007.3
20220529061804 46 199 5.0 6.0 0.02 0.59 0.00 84 1007.3
20220529061304 46 224 3.0 5.0 0.02 0.59 0.00 85 1007.3
20220529060803 46 229 2.0 3.0 0.03 0.59 0.00 85 1007.3
20220529060304 46 205 2.0 3.0 0.05 0.59 0.00 82 1007.3
20220529055804 46 334 3.0 6.0 0.06 0.59 0.59 82 1007.5
20220529055304 46 270 3.0 3.0 0.07 0.58 0.58 86 1007.6
20220529054803 46 247 3.0 5.0 0.09 0.58 0.58 86 1007.6
20220529054304 46 243 5.0 6.0 0.10 0.58 0.57 87 1007.3
20220529053804 46 221 5.0 8.0 0.10 0.58 0.57 85 1007.3
20220529053304 46 209 5.0 6.0 0.10 0.58 0.57 84 1007.3
20220529052804 46 155 5.0 8.0 0.12 0.58 0.57 84 1007.3
20220529052304 46 278 5.0 8.0 0.15 0.59 0.57 86 1007.4
20220529051804 46 284 3.0 5.0 0.18 0.59 0.57 88 1007.6
20220529051303 46 236 3.0 6.0 0.22 0.59 0.57 88 1007.6
20220529050803 46 208 5.0 6.0 0.25 0.58 0.56 88 1007.6
20220529050304 46 204 3.0 5.0 0.26 0.57 0.55 88 1007.6
20220529045804 46 173 3.0 5.0 0.26 0.56 0.53 88 1007.6
20220529044804 46 105 2.0 2.0 0.25 0.52 0.49 89 1008.0
20220529032304 49 275 27.0 38.0 0.02 0.08 0.04 75 1007.6
20220529031803 50 269 25.0 36.0 0.00 0.06 0.02 70 1007.1
20220529031304 52 272 29.0 36.0 0.00 0.06 0.02 66 1007.0
20220529030804 54 260 22.0 26.0 0.00 0.06 0.02 65 1006.7
20220529030304 54 260 22.0 26.0 0.00 0.06 0.02 63 1006.6
20220529025803 55 262 19.0 22.0 0.00 0.06 0.02 61 1006.6
20220529025303 55 252 15.0 18.0 0.00 0.06 0.02 62 1006.3
20220529024804 55 244 16.0 21.0 0.00 0.06 0.02 62 1006.3
20220529024303 54 245 14.0 18.0 0.00 0.06 0.02 64 1006.3
20220529023804 55 238 14.0 17.0 0.00 0.06 0.02 63 1006.3
20220529023304 55 237 12.0 14.0 0.00 0.06 0.02 63 1006.3
20220529022803 55 230 8.0 10.0 0.00 0.06 0.02 62 1006.3
20220529022304 55 233 7.0 12.0 0.00 0.06 0.02 61 1006.3
20220529021803 56 201 7.0 9.0 0.00 0.06 0.02 56 1006.3
20220529021304 55 189 7.0 9.0 0.00 0.06 0.02 57 1006.3
20220529020804 55 242 6.0 7.0 0.00 0.06 0.02 62 1006.3
20220529020304 55 269 5.0 6.0 0.00 0.06 0.02 61 1006.3
20220529015804 55 239 5.0 6.0 0.00 0.06 0.02 60 1006.3
20220529015304 56 232 5.0 8.0 0.00 0.06 0.02 59 1006.6
20220529014803 56 217 6.0 9.0 0.00 0.06 0.02 59 1006.6
20220529014303 56 232 8.0 12.0 0.00 0.06 0.02 57 1007.0
20220529013804 56 233 7.0 10.0 0.00 0.06 0.02 58 1007.0
20220529013304 56 230 8.0 10.0 0.00 0.06 0.02 59 1007.0
20220529012804 56 224 8.0 10.0 0.00 0.06 0.02 58 1007.0
20220529012303 56 228 6.0 8.0 0.00 0.06 0.02 59 1007.0
20220529011804 55 239 8.0 9.0 0.01 0.06 0.02 59 1007.0
20220529011303 55 249 6.0 7.0 0.01 0.06 0.02 64 1007.0
20220529010804 55 255 5.0 6.0 0.01 0.06 0.02 65 1007.0
20220529010303 55 213 3.0 8.0 0.01 0.06 0.02 66 1007.0
20220529005804 55 162 5.0 8.0 0.01 0.06 0.02 67 1007.0
20220529005304 55 255 5.0 9.0 0.01 0.06 0.02 64 1007.0
20220529004804 55 283 10.0 12.0 0.01 0.06 0.02 61 1007.3
20220529004303 55 293 7.0 14.0 0.01 0.06 0.02 58 1007.3
20220529003803 57 255 14.0 17.0 0.00 0.06 0.02 57 1007.6
20220529003304 59 248 3.0 5.0 0.00 0.06 0.02 48 1007.7
20220529002804 59 163 1.0 2.0 0.00 0.06 0.02 44 1007.6
20220529002303 60 134 1.0 2.0 0.00 0.06 0.02 42 1007.6
20220529001804 60 238 1.0 3.0 0.00 0.06 0.01 43 1007.8
20220529001304 60 285 2.0 2.0 0.00 0.06 0.01 42 1008.0
20220529000803 60 278 2.0 2.0 0.00 0.08 0.01 42 1008.0
20220529000303 60 286 1.0 2.0 0.00 0.10 0.01 44 1008.0
20220528235804 59 86 2.0 6.0 0.00 0.15 0.01 43 1008.0
20220528235304 59 96 5.0 8.0 0.00 0.23 0.01 45 1008.0
20220528234803 59 81 6.0 9.0 0.00 0.24 0.01 44 1008.0
20220528234304 59 68 6.0 9.0 0.00 0.24 0.01 44 1008.0
20220528233804 59 19 4.0 7.0 0.00 0.24 0.01 44 1008.0
20220528233304 59 16 5.0 8.0 0.00 0.24 0.01 42 1008.0
20220528232803 60 38 8.0 12.0 0.00 0.24 0.01 42 1008.0
20220528232304 60 65 3.0 8.0 0.00 0.24 0.01 43 1008.0
20220528231804 60 70 6.0 13.0 0.00 0.24 0.01 45 1008.0
20220528231304 60 78 8.0 12.0 0.00 0.24 0.01 41 1008.0
20220528230803 61 247 3.0 6.0 0.00 0.24 0.01 40 1008.3
20220528230304 59 83 3.0 8.0 0.00 0.24 0.01 43 1008.3
20220528225803 59 55 9.0 12.0 0.00 0.24 0.01 44 1008.3
20220528225303 59 60 4.0 10.0 0.00 0.24 0.01 46 1008.3
20220528224804 59 127 4.0 10.0 0.00 0.24 0.01 45 1008.6
20220528224304 59 122 3.0 8.0 0.00 0.24 0.01 46 1008.7
20220528223803 60 81 4.0 6.0 0.00 0.24 0.01 44 1008.7
20220528223303 58 293 3.0 5.0 0.00 0.24 0.01 46 1008.9
20220528222803 58 111 3.0 7.0 0.00 0.24 0.01 48 1009.0
20220528222304 58 82 7.0 10.0 0.00 0.24 0.01 44 1009.0
20220528221804 58 56 6.0 8.0 0.00 0.24 0.01 46 1009.0
20220528221304 58 81 2.0 5.0 0.00 0.24 0.01 47 1009.3
20220528220804 58 43 3.0 5.0 0.00 0.24 0.01 45 1009.3
20220528220303 58 134 4.0 6.0 0.00 0.24 0.01 44 1009.3
20220528215804 59 183 1.0 6.0 0.00 0.24 0.01 44 1009.3
20220528215303 58 336 3.0 5.0 0.00 0.24 0.01 46 1009.3
20220528214804 57 134 7.0 10.0 0.00 0.24 0.01 44 1009.3
20220528214303 58 123 6.0 12.0 0.00 0.24 0.01 45 1009.7
20220528213804 59 111 6.0 12.0 0.00 0.24 0.01 45 1009.7
20220528213304 58 103 7.0 10.0 0.00 0.24 0.01 49 1009.7
20220528212803 57 110 6.0 9.0 0.00 0.24 0.01 49 1009.8
20220528212303 58 113 7.0 10.0 0.00 0.24 0.01 49 1010.0
20220528211803 56 102 6.0 9.0 0.00 0.24 0.01 47 1010.0
20220528211304 57 82 5.0 10.0 0.00 0.24 0.01 48 1010.0
20220528210803 57 93 6.0 13.0 0.00 0.24 0.01 47 1010.0
20220528210303 58 68 9.0 13.0 0.00 0.24 0.01 48 1010.0
20220528205804 58 92 11.0 15.0 0.00 0.24 0.01 46 1010.0
20220528205304 57 67 9.0 13.0 0.00 0.24 0.01 47 1010.2
20220528204804 57 343 2.0 9.0 0.00 0.24 0.01 47 1010.4
20220528204303 57 16 8.0 10.0 0.00 0.24 0.01 45 1010.4
20220528203804 59 10 7.0 21.0 0.00 0.24 0.01 47 1010.5
20220528203304 58 154 4.0 8.0 0.00 0.24 0.01 45 1010.4
20220528202804 56 37 6.0 7.0 0.00 0.24 0.01 47 1010.7
20220528202304 56 23 4.0 9.0 0.00 0.24 0.01 48 1010.7
20220528201803 56 1 8.0 9.0 0.00 0.24 0.01 49 1010.7
20220528201304 56 25 7.0 12.0 0.00 0.24 0.01 50 1010.7
20220528200803 56 223 9.0 16.0 0.00 0.24 0.01 49 1010.7
20220528200304 56 273 5.0 12.0 0.00 0.24 0.01 45 1010.7
20220528195803 56 305 9.0 12.0 0.00 0.24 0.01 48 1011.0
20220528195303 56 283 12.0 14.0 0.00 0.24 0.01 48 1011.0
20220528194804 56 263 10.0 14.0 0.00 0.24 0.01 49 1011.0
20220528194304 57 325 8.0 12.0 0.00 0.24 0.01 47 1011.0
20220528193804 57 263 10.0 14.0 0.00 0.24 0.01 48 1011.0
20220528193303 56 205 5.0 14.0 0.00 0.24 0.01 47 1011.0
20220528192804 56 292 10.0 14.0 0.00 0.24 0.01 48 1011.4
20220528192304 56 308 6.0 13.0 0.00 0.24 0.01 49 1011.4
20220528191804 56 246 8.0 15.0 0.00 0.24 0.01 46 1011.4
20220528191304 57 286 9.0 12.0 0.00 0.24 0.01 50 1011.4
20220528190804 55 285 9.0 15.0 0.00 0.24 0.01 50 1011.4
20220528190304 56 305 10.0 14.0 0.00 0.24 0.01 49 1011.4
20220528185804 55 299 9.0 15.0 0.00 0.24 0.01 48 1011.4
20220528185304 55 274 7.0 14.0 0.00 0.24 0.01 47 1011.4
20220528184803 55 276 11.0 14.0 0.00 0.24 0.01 51 1011.4
20220528184303 56 254 8.0 12.0 0.00 0.24 0.01 47 1011.5
20220528183803 55 303 5.0 10.0 0.00 0.24 0.01 47 1011.7
20220528183304 54 203 3.0 13.0 0.00 0.24 0.01 49 1011.4
20220528182803 55 246 9.0 15.0 0.00 0.24 0.01 48 1011.6
20220528182303 54 326 6.0 15.0 0.00 0.24 0.01 49 1011.5
20220528181804 54 277 8.0 12.0 0.00 0.24 0.01 48 1011.7
20220528181304 54 218 7.0 14.0 0.00 0.24 0.01 49 1011.7
20220528180803 55 256 12.0 16.0 0.00 0.24 0.01 47 1011.7
20220528180304 54 237 10.0 16.0 0.00 0.24 0.01 49 1011.4
20220528175804 55 231 12.0 16.0 0.00 0.24 0.01 45 1011.4
20220528175303 54 244 5.0 10.0 0.00 0.24 0.01 47 1011.7
20220528174803 54 260 9.0 14.0 0.00 0.24 0.01 47 1011.7
20220528174304 54 296 5.0 9.0 0.00 0.24 0.01 44 1011.7
20220528173804 54 319 3.0 9.0 0.00 0.24 0.01 51 1011.7
20220528173303 54 300 5.0 12.0 0.00 0.24 0.01 48 1011.7
20220528172803 55 313 3.0 7.0 0.00 0.24 0.01 47 1011.7
20220528172304 54 335 2.0 5.0 0.00 0.24 0.01 50 1011.7
20220528171804 53 302 6.0 9.0 0.00 0.24 0.01 53 1011.7
20220528171303 53 331 7.0 9.0 0.00 0.24 0.01 51 1011.7
20220528170803 53 294 7.0 13.0 0.00 0.24 0.01 50 1011.7
20220528170303 54 324 6.0 9.0 0.00 0.24 0.01 54 1011.8
20220528165804 53 320 7.0 9.0 0.00 0.24 0.01 52 1011.7
20220528165304 53 319 5.0 10.0 0.00 0.24 0.01 54 1011.8
20220528164803 53 323 4.0 9.0 0.00 0.24 0.01 54 1012.0
20220528164304 53 262 7.0 9.0 0.00 0.24 0.01 54 1011.7
20220528163804 53 326 6.0 10.0 0.00 0.24 0.01 52 1012.1
20220528163304 53 340 4.0 8.0 0.00 0.24 0.01 56 1012.1
20220528162803 53 344 6.0 10.0 0.00 0.24 0.01 56 1012.1
20220528162303 52 356 3.0 7.0 0.00 0.24 0.01 53 1012.1
20220528161804 52 2 5.0 10.0 0.00 0.24 0.01 51 1012.1
20220528161304 52 315 7.0 13.0 0.00 0.24 0.01 51 1012.1
20220528160803 53 297 7.0 10.0 0.00 0.24 0.01 51 1012.1
20220528160304 52 346 5.0 15.0 0.00 0.24 0.01 51 1012.1
20220528155803 52 317 5.0 8.0 0.00 0.24 0.01 52 1012.1
20220528155303 53 324 6.0 9.0 0.00 0.24 0.01 50 1012.1
20220528154804 52 295 7.0 13.0 0.00 0.24 0.01 52 1012.1
20220528154304 53 330 8.0 12.0 0.00 0.24 0.01 53 1012.1
20220528153803 53 247 4.0 9.0 0.00 0.24 0.01 50 1012.1
20220528153303 52 107 2.0 10.0 0.00 0.24 0.01 54 1012.1
20220528152804 51 350 7.0 10.0 0.00 0.24 0.01 60 1012.1
20220528152304 51 14 4.0 10.0 0.00 0.24 0.01 64 1012.1
20220528151804 51 310 8.0 14.0 0.00 0.24 0.01 60 1012.1
20220528151303 52 48 3.0 7.0 0.00 0.24 0.01 65 1012.1
20220528150804 51 71 3.0 6.0 0.00 0.24 0.01 64 1012.1
20220528150303 52 13 4.0 10.0 0.00 0.24 0.01 72 1012.1
20220528145803 53 254 6.0 10.0 0.00 0.24 0.01 64 1012.1
20220528145304 53 276 3.0 6.0 0.00 0.24 0.01 54 1012.1
20220528144803 53 213 2.0 6.0 0.00 0.24 0.01 61 1012.1
20220528144304 51 185 3.0 6.0 0.00 0.24 0.01 66 1012.1
20220528143804 51 161 4.0 6.0 0.00 0.24 0.01 72 1012.1
20220528143304 51 236 2.0 5.0 0.00 0.24 0.01 76 1012.1
20220528142803 50 347 3.0 5.0 0.00 0.24 0.01 75 1012.1
20220528142304 49 73 2.0 7.0 0.00 0.24 0.01 78 1012.3
20220528141804 49 24 5.0 6.0 0.00 0.24 0.01 79 1012.4
20220528141304 50 84 2.0 5.0 0.00 0.24 0.01 75 1012.2
20220528140803 49 281 3.0 8.0 0.00 0.24 0.01 80 1012.1
20220528140304 49 257 6.0 9.0 0.00 0.24 0.01 68 1012.1
20220528135803 49 248 6.0 9.0 0.00 0.24 0.01 70 1012.4
20220528135304 49 264 7.0 9.0 0.00 0.24 0.01 70 1012.1
20220528134803 49 269 9.0 10.0 0.00 0.24 0.01 70 1012.1
20220528134304 49 267 9.0 12.0 0.00 0.24 0.01 72 1012.1
20220528133804 49 253 10.0 12.0 0.00 0.24 0.01 74 1012.1
20220528133304 49 255 9.0 12.0 0.00 0.24 0.01 73 1012.4
20220528132803 49 253 9.0 10.0 0.00 0.24 0.01 73 1012.4
20220528132304 49 255 7.0 9.0 0.00 0.24 0.01 70 1012.4
20220528131804 49 254 8.0 9.0 0.00 0.24 0.01 70 1012.4
20220528131304 49 264 7.0 8.0 0.00 0.24 0.01 73 1012.4
20220528130803 49 259 7.0 9.0 0.00 0.24 0.01 72 1012.4
20220528130303 49 266 6.0 9.0 0.00 0.24 0.01 71 1012.4
20220528125804 49 256 6.0 7.0 0.00 0.24 0.01 72 1012.1
20220528125304 49 242 5.0 8.0 0.00 0.24 0.01 71 1012.1
20220528124803 49 259 6.0 8.0 0.00 0.24 0.01 70 1012.1
20220528124304 49 265 8.0 12.0 0.00 0.24 0.01 70 1012.1
20220528123803 49 274 7.0 10.0 0.00 0.24 0.01 70 1012.1
20220528123304 49 267 8.0 9.0 0.00 0.24 0.01 69 1012.1
20220528122803 49 278 7.0 8.0 0.00 0.24 0.01 69 1012.1
20220528122304 49 276 8.0 10.0 0.00 0.24 0.01 69 1012.1
20220528121804 49 269 8.0 10.0 0.00 0.24 0.01 71 1012.1
20220528121303 49 278 7.0 9.0 0.00 0.24 0.01 72 1012.1
20220528120804 49 275 8.0 10.0 0.00 0.24 0.01 72 1012.1
20220528120303 49 283 9.0 12.0 0.00 0.24 0.01 70 1012.2
20220528115804 49 286 10.0 12.0 0.00 0.24 0.01 71 1012.4
20220528115304 49 286 9.0 12.0 0.00 0.24 0.01 71 1012.4
20220528114804 50 286 9.0 10.0 0.00 0.24 0.01 72 1012.4
20220528114303 50 280 9.0 13.0 0.00 0.24 0.01 72 1012.4
20220528113804 50 285 9.0 13.0 0.00 0.24 0.01 72 1012.4
20220528113303 50 278 12.0 13.0 0.00 0.24 0.01 71 1012.4
20220528112803 49 278 12.0 14.0 0.00 0.24 0.01 72 1012.4
20220528112304 49 283 12.0 15.0 0.00 0.24 0.01 73 1012.4
20220528111804 49 279 12.0 14.0 0.00 0.24 0.01 73 1012.2
20220528111304 49 280 10.0 14.0 0.00 0.24 0.01 75 1012.1
20220528110804 49 282 10.0 12.0 0.00 0.24 0.01 77 1012.3
20220528110303 49 293 12.0 14.0 0.00 0.24 0.01 78 1012.4
20220528105804 50 294 13.0 15.0 0.00 0.24 0.01 78 1012.4
20220528105304 50 296 10.0 13.0 0.00 0.24 0.01 77 1012.4